www.pogodaiklimat.ru

Погода и климат >> Архив погоды >> Черногория >> Никшич


ПОГОДА в Никшиче

  • Прогноз погоды в Никшиче
  • Монитор погоды в Никшиче

АРХИВ ПОГОДЫ в Никшиче

Время (UTC), дата Ветер
(напр.,м/с)
 
Видим.   Явления Облачность Т
(С)
Тd
(С)
f
(%)
Тe
(С)
Тes
(С)
Комфортность P
(гПа)
Po
(гПа)
Тmin
(С)
Tmax
(С)
R
(мм)
R24
(мм)
S
(см)
03 11.09 В 2 20 км 4/4 1230 м
[Cu Sc]
+15.2 +12.7 85 +15 +15 1018.6 944.2
04 11.09 штиль 0 20 км 8/5 1230 м
[Cu Sc Ac trans]
+15.2 +12.7 85 +15 +15 1018.6 944.2
05 11.09 В 1 20 км 8/5 1230 м
[Cu Sc Ac trans]
+15.3 +12.8 85 +16 +16 1019.5 945.0
06 11.09 Ю 2 20 км 8/5 1000 м
[Cu Sc Ac trans]
+16.1 +12.7 80 +16 +17 1019.3 945.0 +15.0
07 11.09 С 1 20 км 9/5 1230 м
[Cu Sc Ac As]
+16.8 +13.4 80 +18 +19 1018.7 945.0
08 11.09 С 3 20 км 9/5 1230 м
[Cu Sc Ac As]
+17.6 +14.0 79 +18 +19 1018.0 945.0
09 11.09 В 1 20 км слаб. дождь 9/5 1230 м
[Cu Sc Ac As]
+18.0 +16.3 90 +19 +22 1018.0 945.0
10 11.09 Ю 2 20 км в посл. час дождь 10/6 1230 м
[Cu Sc Ac As]
+17.8 +16.1 90 +18 +20 1020.1 946.5
11 11.09 В 1 20 км 10/6 1230 м
[Cu Sc Ac As]
+19.5 +17.2 87 +23 +25 комфорт 1019.8 946.9
12 11.09 С 2 20 км {дождь} 10/6 1000 м
[Cu Sc Ac As]
+20.0 +17.7 87 +24 +25 комфорт 1019.5 946.6 0.1
13 11.09 С 2 20 км 9/5 1230 м
[Cu Sc Ac As]
+20.7 +16.5 77 +25 +27 комфорт 1019.4 946.5
14 11.09 С 2 20 км 8/3 1230 м
[Cu med, cong Ac trans Ci]
+22.7 +13.8 57 +26 +29 жарко 1018.8 946.5
15 11.09 С 2 20 км 5/3 1000 м
[Cu med, cong Ac trans Ci]
+23.8 +13.9 54 +26 +28 жарко 1018.5 946.5
16 11.09 С 2 20 км 9/3 1230 м
[Cu med, cong Ac As Ci sp]
+23.1 +13.5 55 +26 +27 жарко 1018.8 946.5
17 11.09 С 2 20 км 8/3 1230 м
[Cu med, cong Ac As]
+21.8 +12.1 54 +24 +24 комфорт 1019.0 946.5
18 11.09 С 2 20 км 8/3
[Cu med, cong Ac As]
+21.5 +11.4 53 +24 +24 комфорт 1019.2 946.7 +24.1 0.1
19 11.09 С 2 20 км 8/3 1230 м
[Cu med, cong Ac trans]
+21.2 +11.1 52 +23 +23 комфорт 1019.8 946.9
20 11.09 С 1 20 км 8/3 1230 м
[Cu med, cong Ac trans]
+20.4 +10.5 53 +23 +23 комфорт 1020.5 947.4
21 11.09 С 1 20 км 3/0
[Ac trans]
+18.8 +11.4 62 +21 +21 комфорт 1021.4 947.9
00 12.09 СВ 1 20 км 6/0
[Ac trans]
+16.6 +9.4 62 +18 +18 1022.2 948.2
03 12.09 С 2 20 км ясно +16.0 +9.6 66 +16 +16 1022.9 948.9
04 12.09 СВ 2 20 км 4/0
[Ac lent Ci]
+15.4 +10.8 74 +15 +15 1023.5 948.9
05 12.09 С 2 20 км 6/0
[Ac lent Ci]
+14.8 +9.7 71 +15 +15 1023.5 948.9
06 12.09 С 2 20 км 4/0
[Ac lent Ci]
+15.3 +9.8 70 +15 +17 1024.1 949.5 +14.6
07 12.09 С 4 20 км 1/0
[Ac trans]
+20.2 +13.2 64 +22 +25 комфорт 1023.2 949.9
08 12.09 С 6 20 км 5/1 1230 м
[Cu med, cong Ac trans Ci fib]
+22.0 +11.1 50 +24 +26 комфорт 1023.4 950.5
09 12.09 С 6 20 км 6/1
[Cu med, cong Ac trans Ci sp]
+22.4 +11.4 50 +25 +27 комфорт 1023.9 951.0
10 12.09 СВ 6 20 км 8/3 1230 м
[Cu Sc Ac trans Ci sp]
+23.2 +10.8 46 +25 +28 комфорт 1013.4 950.7
11 12.09 С 6 20 км 9/4 1230 м
[Cu Sc Ac trans Ci sp]
+23.7 +11.2 45 +25 +27 комфорт 1013.1 950.7
12 12.09 С 6 20 км 8/3
[Cu Sc Ac trans Ci sp]
+24.2 +11.7 46 +26 +28 жарко 1013.1 950.7
13 12.09 С 6 20 км 5/1 1230 м
[Cu med, cong Ac trans Ci sp]
+24.9 +13.0 48 +27 +29 жарко 1022.9 950.7
14 12.09 СВ 4 20 км 5/1 1230 м
[Cu med, cong Ac trans Ci sp]
+25.2 +11.8 43 +27 +29 жарко 1011.8 949.7
15 12.09 СВ 5 20 км 4/1 1230 м
[Cu med, cong Ci sp]
+25.2 +11.8 43 +27 +28 жарко 1021.6 949.5
16 12.09 СВ 3 20 км 4/1 1230 м
[Cu med, cong Ci sp]
+24.1 +11.1 44 +25 +26 комфорт 1021.8 949.5
17 12.09 СВ 3 20 км 4/1 1230 м
[Cu med, cong Ci sp]
+22.7 +10.5 46 +25 +25 комфорт 1022.5 949.9
18 12.09 СВ 3 20 км 3/1 1000 м
[Cu med, cong Ci sp]
+21.2 +10.5 50 +23 +23 комфорт 1024.1 950.9 +25.4
19 12.09 СВ 2 20 км 1/1 1230 м
[Cu med, cong]
+20.5 +10.9 54 +23 +23 комфорт 1024.7 951.5
20 12.09 С 2 20 км 1/1 1230 м
[Cu med, cong]
+20.1 +11.1 56 +22 +22 комфорт 1026.4 952.6
21 12.09 С 3 20 км 1/1 1230 м
[Cu med, cong]
+19.7 +11.2 58 +21 +21 комфорт 1026.4 952.6
00 13.09 С 5 20 км 4/4 1230 м
[Cu Sc]
+19.0 +10.8 59 +20 +20 1027.0 952.9
03 13.09 С 3 20 км 5/5 1230 м
[Cu Sc]
+18.6 +10.8 60 +19 +19 1027.0 952.9
04 13.09 С 2 20 км 8/5 1230 м
[Cu Sc Ac trans]
+18.1 +11.5 65 +19 +19 1027.0 942.9
05 13.09 С 5 20 км 6/5 1230 м
[Cu Sc Ac trans]
+18.6 +10.8 60 +19 +19 1027.4 953.3
06 13.09 С 5 20 км 4/4 1230 м
[Cu Sc]
+19.3 +11.2 59 +20 +21 1027.7 953.5 +18.0
07 13.09 С 6 20 км 1/1 1230 м
[Cu med, cong]
+20.2 +12.7 62 +22 +23 комфорт 1027.6 953.9
08 13.09 С 6 20 км 1/1 1230 м
[Cu med, cong]
+21.0 +10.3 50 +23 +25 комфорт 1027.3 953.9
09 13.09 С 6 20 км 1/1 1230 м
[Cu med, cong]
+21.7 +10.0 47 +23 +27 комфорт 1026.6 953.5
10 13.09 С 8 20 км 1/1 1230 м
[Cu med, cong]
+23.6 +11.1 45 +25 +27 комфорт 1025.6 953.0
11 13.09 В 6 20 км 3/3 1230 м
[Cu med, cong]
+24.2 +10.6 42 +25 +29 комфорт 1025.3 952.7
12 13.09 В 6 20 км 3/3 1230 м
[Cu med, cong]
+25.0 +10.6 40 +26 +29 жарко 1024.4 952.2
13 13.09 В 6 20 км 1/1 1230 м
[Cu med, cong]
+25.5 +10.5 39 +26 +30 жарко 1023.5 951.8
14 13.09 СВ 5 20 км 1/1 1230 м
[Cu med, cong]
+25.5 +10.5 39 +26 +29 жарко 1022.8 950.9
15 13.09 СВ 6 20 км 1/1 1230 м
[Cu med, cong]
+25.2 +10.3 39 +26 +27 жарко 1022.8 950.6
16 13.09 СВ 5 20 км 1/1 1230 м
[Cu med, cong]
+24.3 +10.5 42 +25 +26 комфорт 1023.0 950.6
17 13.09 СВ 5 20 км 1/1 1230 м
[Cu med, cong]
+23.0 +10.2 44 +25 +25 комфорт 1023.4 950.7
18 13.09 СВ 4 20 км ясно +21.8 +10.5 49 +24 +24 комфорт 1024.0 951.1 +25.7
19 13.09 СВ 4 20 км ясно +21.0 +10.0 49 +23 +23 комфорт 1024.8 951.8
20 13.09 С 3 20 км ясно +20.4 +9.7 50 +22 +22 комфорт 1027.1 953.3
21 13.09 С 3 20 км ясно +19.8 +10.5 55 +21 +21 комфорт 1027.1 953.3
00 14.09 С 4 20 км ясно +18.3 +9.8 58 +18 +18 1027.4 953.3
03 14.09 С 5 20 км ясно +17.5 +9.2 58 +17 +17 1026.7 952.6
04 14.09 С 4 20 км ясно +17.5 +9.2 58 +17 +17 1026.7 952.6
05 14.09 С 3 20 км ясно +17.0 +9.0 59 +17 +17 1026.7 952.6
06 14.09 С 7 20 км ясно +18.8 +10.2 57 +19 +19 1026.3 952.3 +16.8
07 14.09 С 4 20 км 1/1 1230 м
[Cu med, cong]
+20.0 +9.6 51 +21 +24 комфорт 1025.8 952.3
08 14.09 С 4 20 км 1/1 1230 м
[Cu med, cong]
+21.5 +9.6 47 +23 +27 комфорт 1025.3 952.3
09 14.09 В 5 20 км 1/1 1230 м
[Cu hum]
+22.4 +9.0 42 +24 +29 комфорт 1025.3 952.3
10 14.09 В 6 20 км 1/1 1000 м
[Cu hum]
+23.4 +9.6 42 +25 +29 комфорт 1025.1 952.3
11 14.09 С 6 20 км 1/1 1230 м
[Cu hum]
+23.8 +9.7 41 +25 +29 комфорт 1024.6 952.1
12 14.09 С 5 20 км 3/1 1230 м
[Cu hum Ci fib]
+25.1 +10.6 40 +26 +31 жарко 1024.1 931.9
13 14.09 СВ 5 20 км 3/1 1230 м
[Cu hum Ci fib]
+25.4 +10.5 39 +26 +30 жарко 1023.7 931.5
14 14.09 С 6 20 км 5/1 1230 м
[Cu hum Ci fib]
+25.1 +10.2 39 +26 +28 жарко 1023.2 951.0
15 14.09 С 6 20 км 5/1 1230 м
[Cu hum Ci fib]
+24.4 +9.8 40 +25 +26 комфорт 1023.0 950.6
16 14.09 С 4 20 км 5/1 1230 м
[Cu hum Ci fib]
+23.2 +9.6 42 +25 +25 комфорт 1023.3 950.6
17 14.09 С 4 20 км 5/1 1230 м
[Cu hum Ci fib]
+21.6 +9.0 44 +23 +23 комфорт 1023.5 950.6
18 14.09 С 3 20 км 1/0
[Ci fib]
+20.6 +9.0 47 +22 +22 комфорт 1024.5 951.3 +25.7
19 14.09 С 2 20 км 1/0
[Ci fib]
+20.0 +8.5 47 +22 +22 комфорт 1025.2 951.7
20 14.09 СЗ 1 20 км ясно +18.9 +8.1 49 +21 +21 комфорт 1025.7 951.9
21 14.09 С 1 20 км ясно +18.8 +8.5 51 +20 +20 1025.9 942.1
00 15.09 С 2 20 км ясно +17.8 +8.5 54 +18 +18 1026.1 952.1
03 15.09 СВ 2 20 км ясно +16.9 +8.3 57 +17 +17 1026.1 951.8
04 15.09 С 2 20 км ясно +14.3 +7.4 63 +14 +14 1026.9 951.8
05 15.09 В 1 20 км ясно +13.3 +8.1 71 +14 +14 1027.1 951.8
06 15.09 штиль 0 20 км ясно +13.5 +8.1 70 +13 +15 1026.9 951.8 +13.0
07 15.09 штиль 0 20 км ясно +19.1 +11.1 60 +20 +25 1024.5 950.9
08 15.09 штиль 0 20 км ясно +21.9 +10.9 50 +24 +34 комфорт 1023.8 950.9
09 15.09 Ю 1 20 км ясно +24.1 +11.5 45 +26 +37 жарко 1023.0 950.6
10 15.09 ЮЗ 1 20 км ясно +25.3 +12.0 43 +27 +41 жарко 1022.7 950.5
11 15.09 ЮЗ 2 20 км ясно +26.1 +11.5 40 +27 +40 жарко 1021.7 949.9
12 15.09 Ю 2 20 км 1/1 1230 м
[Cu hum]
+27.2 +12.3 40 +29 +39 жарко 1020.8 949.3
13 15.09 Ю 3 20 км 1/1 1230 м
[Cu hum]
+27.3 +12.1 39 +29 +35 жарко 1020.1 948.6
14 15.09 Ю 3 20 км 1/1 1230 м
[Cu hum]
+27.3 +12.1 39 +29 +33 жарко 1019.6 948.2
15 15.09 Ю 5 20 км ясно +26.4 +12.0 41 +28 +29 жарко 1020.1 948.2
16 15.09 Ю 5 20 км ясно +25.1 +12.1 44 +27 +27 жарко 1020.1 947.9
17 15.09 Ю 3 20 км ясно +23.1 +10.3 44 +25 +25 комфорт 1020.6 947.9
18 15.09 Ю 1 20 км ясно +21.3 +10.0 48 +23 +23 комфорт 1021.7 948.5 +27.6
19 15.09 Ю 1 20 км ясно +19.5 +10.0 54 +22 +22 комфорт 1022.2 948.7
20 15.09 В 2 20 км ясно +18.1 +9.7 58 +19 +19 1022.9 948.9
21 15.09 СВ 2 20 км ясно +16.5 +9.2 62 +17 +17 1023.5 948.9
00 16.09 С 2 20 км ясно +14.6 +10.0 74 +14 +14 1022.3 948.5
03 16.09 С 2 20 км ясно +12.8 +9.6 81 +12 +12 1022.5 947.5
04 16.09 С 2 20 км ясно +12.4 +10.0 85 +11 +11 1023.1 947.5
05 16.09 С 1 20 км ясно +12.3 +9.6 84 +12 +12 1023.1 947.5
06 16.09 С 1 20 км ясно +14.0 +9.6 75 +14 +16 1021.9 947.0 +12.2
07 16.09 С 1 20 км ясно +17.2 +11.5 69 +18 +23 1020.9 947.0
08 16.09 С 1 20 км 1/0
[Ci]
+20.0 +13.9 68 +23 +31 комфорт 1020.0 946.9
09 16.09 С 2 20 км 1/0
[Ci]
+25.2 +16.9 60 +29 +39 душно 1018.1 946.3
10 16.09 З 3 20 км 1/0
[Ci]
+26.8 +15.5 50 +30 +39 душно 1017.5 946.2
11 16.09 Ю 4 20 км 1/0
[Ci]
+27.2 +12.8 41 +29 +37 жарко 1017.2 945.9
12 16.09 Ю 4 20 км 3/1 1230 м
[Cu hum Ci]
+28.2 +12.7 38 +30 +36 жарко 1015.9 944.6
13 16.09 Ю 4 20 км 3/1 1230 м
[Cu med, cong Ci]
+28.2 +14.0 42 +30 +35 жарко 1015.2 943.9
14 16.09 Ю 4 20 км 5/1 1230 м
[Cu med, cong Ci]
+26.8 +13.1 43 +29 +32 жарко 1014.4 943.3
15 16.09 Ю 5 20 км 6/1 1230 м
[Cu med, cong Ci]
+26.2 +13.8 46 +28 +29 жарко 1014.3 943.0
16 16.09 ЮЗ 3 20 км 6/1 1230 м
[Cu med, cong Ci]
+24.4 +13.4 50 +27 +27 жарко 1014.8 943.0
17 16.09 З 1 20 км 6/0
[Ci]
+23.1 +13.2 54 +26 +26 жарко 1015.2 943.1
18 16.09 Ю 1 20 км 5/0
[Ci]
+21.4 +12.5 57 +24 +24 комфорт 1016.1 943.5 +28.3
19 16.09 В 1 20 км 3/0
[Ci]
+19.7 +13.0 65 +22 +22 комфорт 1016.8 943.9
20 16.09 штиль 0 20 км ясно +18.5 +12.0 66 +19 +19 1018.2 944.5
21 16.09 штиль 0 20 км ясно +17.0 +12.1 73 +17 +17 1018.4 944.5
00 17.09 С 2 20 км ясно +15.0 +11.5 80 +15 +15 1018.9 944.5
03 17.09 С 2 20 км ясно +12.8 +9.8 82 +12 +12 1019.1 944.1
04 17.09 С 1 20 км ясно +12.3 +9.8 85 +12 +12 1019.4 944.1
05 17.09 С 2 20 км 1/0
[Ci fib]
+12.3 +9.8 85 +11 +11 1019.4 944.1
06 17.09 штиль 0 20 км 1/0
[Ci fib]
+13.6 +11.2 85 +13 +15 1018.8 944.1 +12.1
07 17.09 СВ 1 20 км 1/0
[Ci fib]
+17.0 +11.5 70 +18 +22 1017.8 944.1
08 17.09 штиль 0 20 км ясно +20.4 +12.0 59 +22 +31 комфорт 1017.0 944.1
09 17.09 Ю 2 20 км ясно +23.2 +12.3 50 +26 +36 жарко 1016.0 943.9
10 17.09 Ю 3 20 км ясно +25.3 +12.5 45 +27 +37 жарко 1015.0 943.4
11 17.09 Ю 4 20 км 1/1 1230 м
[Cu med, cong]
+26.0 +12.4 43 +28 +35 жарко 1014.4 943.1
12 17.09 Ю 5 20 км 1/1 1230 м
[Cu med, cong]
+25.8 +12.8 44 +28 +33 жарко 1014.0 942.7
13 17.09 Ю 6 20 км 1/1 1230 м
[Cu med, cong]
+25.8 +13.1 45 +28 +31 жарко 1013.2 941.9
14 17.09 Ю 6 20 км 1/1 1230 м
[Cu med, cong]
+25.6 +13.1 46 +28 +29 жарко 1013.1 941.8
15 17.09 Ю 6 20 км 1/1 1230 м
[Cu med, cong]
+24.8 +12.5 46 +27 +27 жарко 1013.2 941.7
16 17.09 Ю 6 20 км 1/1 1230 м
[Cu med, cong]
+23.8 +11.7 47 +25 +26 комфорт 1013.4 941.7
17 17.09 Ю 5 20 км 1/1 1230 м
[Cu med, cong]
+22.1 +12.0 53 +24 +24 комфорт 1013.9 941.7
18 17.09 Ю 2 20 км 1/1 1230 м
[Cu med, cong]
+20.7 +12.7 60 +24 +24 комфорт 1014.2 941.7 +26.3
19 17.09 Ю 3 20 км ясно +19.6 +14.8 74 +22 +22 комфорт 1014.8 942.1
20 17.09 Ю 1 20 км ясно +18.6 +15.3 81 +21 +21 комфорт 1015.5 942.5
21 17.09 штиль 0 20 км ясно +16.4 +12.5 78 +16 +16 1016.4 942.6
00 18.09 В 2 20 км ясно +13.7 +9.6 76 +13 +13 1017.0 942.6

 

Местоположение метеостанции Никшич (Черногория): широта 42.77 долгота 18.95 высота над уровнем моря 647 м.

В архиве по умолчанию представлена погода в Никшиче за последнюю неделю. Архивные данные за месяц целиком и за предыдущие месяцы, начиная с января 2011 года, Вы можете получить, выбрав интересующий диапазон дат из раскрывающегося списка и нажав кнопку "Ввод!".


*Определитесь, кто Вы:
робот инопланетянин человек

Внимание! Время в таблицах - всемирное. Для получения местного времени необходимо прибавить поправку, которая равна 1 ч.

Смотрите также архив погоды в соседних городах и на ближайших метеорологических станциях:

Погода в Тивате (Черногория) (45 км)
Погода в Подгорица-Граде (Черногория) (46 км)
Погода в Подгорице (Черногория) (51 км)
Погода в Дубровник аэропорту (Хорватия) (60 км)
Погода в Плевле (Черногория) (72 км)
Погода в Дубровнике (Хорватия) (72 км)
Погода в Баре (Черногория) (76 км)
Погода в Шкодре (Албания) (88 км)
Погода в Женике (Сербия) (103 км)
Погода в Неуме (Босния и Герцеговина) (111 км)

Пояснения к столбцам:

Ветер - указаны скорость ветра в м/с - средняя за 10 мин, порывы в срок и между сроками (в фигурных скобках) и направление, откуда дует ветер: С - северный, СВ - северо-восточный, В - восточный, ЮВ - юго-восточный, Ю - южный, ЮЗ - юго-западный, З - западный, СЗ - северо-западный.
Видимость - горизонтальная дальность видимости в метрах или километрах. При видимости от 1 до 10 км при отсутствии осадков обычно наблюдается дымка, при ухудшении видимости до 1 км и менее - туман. В сухую погоду видимость может ухудшаться дымом, пылью или мглою.
Явления - указаны атмосферные явления, наблюдавшиеся в срок или в последний час перед сроком; фигурными скобками обозначены явления, наблюдавшиеся между сроками (за 1-3 часа до срока); квадратными скобками обозначены град или гололедные отложения с указанием их диаметра в мм.
Облачность - указаны через наклонную черту общая и нижняя облачность в баллах и высота нижней границы облаков в метрах; квадратными скобками обозначены формы облаков: Ci - перистые, Cs - перисто-слоистые, Cc - перисто-кучевые, Ac - высококучевые, As - высокослоистые, Sc - слоисто-кучевые, Ns - слоисто-дождевые, Cu - кучевые, Cb - кучево-дождевые. Подробнее классификацию облаков см. в Атласе облаков (PDF).
T - Температура воздуха - температура, измеренная на высоте 2 м над землей.
Td - Температура точки росы - температура, при понижении до которой содержащийся в воздухе водяной пар достигнет насыщения.
f - Относительная влажность воздуха - влажноcть воздуха, измеренная на высоте 2 м над землей.
Te - Эффективная температура - температура, которую ощущает одетый по сезону человек в тени. Характеристика душности погоды. При расчете учитывается влияние влажности воздуха и скорости ветра на теплоощущения человека.
Tes - Эффективная температура на солнце - температура, которую ощущает человек, с поправкой на солнечный нагрев. Характеристика знойности погоды. Зависит от высоты солнца над горизонтом, облачности и скорости ветра. Ночью, в пасмурную погоду, а также при ветре 12 м/с и более поправка равна нулю.
P - Атмосферное давление - приведенное к уровню моря атмосферное давление.
Po - Атмосферное давление - измеренное на уровне метеостанции атмосферное давление.
Tmin - Минимальная температура - минимум температуры воздуха на высоте 2 м над землей.
Tmax - Максимальная температура - максимум температуры воздуха на высоте 2 м над землей.
R - Количество осадков - Количество выпавших осадков за период времени, мм. При наведении курсора мыши на число - период времени, за который выпало указанное количество осадков.
R24 - Количество осадков - Количество выпавших осадков за 24 часа, мм.
S - Снежный покров - Высота снежного покрова, см. При наведении курсора мыши на число - состояние снежного покрова и степень покрытия местности в баллах.